[[{"header":{"parameterUnit":"m.s-1","parameterCategory":1,"la1":30.2991,"la2":30.254,"lo1":-89.0895,"lo2":-89.0444,"dy":0.0017,"dx":0.0017,"nx":28,"ny":28,"refTime":"2024-06-19T21:00:00:Z","depth":0,"parameterNumber":2,"parameterNumberName":"U-component_of_WINDS"},"data":[0,0,0,0,0,0,0,0,0,0,0,0,0,0,0,0,0,0,0,0,0,0,0,0,0,0,0,0,0,0,0,0,0,0,0,0,0,0,0,0,0,0,0,0,0,0,0,0,0,0,0,0,0,0,0,0,0,0,-2.9794,-2.9794,0,-2.9848,-2.9848,-2.9849,-2.9776,-2.9774,-2.9771,-2.9769,-2.9826,-2.983,-2.9834,0,0,0,0,0,0,0,0,0,0,0,0,0,-2.9628,-2.9631,-2.9793,-2.9794,-2.9795,-2.9848,-2.9849,-2.9849,-2.9777,-2.9774,-2.9771,-2.9768,-2.9825,-2.9829,-2.9834,0,0,0,0,0,0,0,0,0,0,0,0,0,-2.9693,-2.9632,-2.9793,-2.9765,-2.9763,-2.9848,-2.9849,-2.9849,-2.9778,-2.9774,-2.977,-2.9766,-2.9823,-2.9829,-2.9835,-2.995,0,0,-2.9853,-2.9856,0,0,0,0,0,0,0,0,-2.9689,-2.9699,-2.9769,-2.9767,-2.9765,-2.9801,-2.9811,-2.9883,-2.9779,-2.9772,-2.9769,-2.9764,-2.9821,-2.9827,-2.9846,-2.9953,-2.9955,-2.9853,-2.9857,-2.986,-2.9861,0,0,0,0,0,0,0,-2.9685,-2.9696,-2.9815,-2.977,-2.9768,-2.975,-2.9755,-2.9824,-2.9818,-2.9772,-2.9767,-2.9775,-2.9819,-2.984,-2.9847,-2.9956,-2.9853,-2.9859,-2.9862,-2.9865,-3.0159,-3.0163,0,0,0,0,0,0,-2.9683,-2.9693,-2.9813,-2.9817,-2.9717,-2.9756,-2.9762,-2.9794,-2.9817,-2.9817,-2.9778,-2.9771,-2.9832,-2.984,-2.9848,-2.9983,-2.986,-2.9865,-2.9869,-3.0155,-3.016,-3.0164,0,0,0,0,0,0,-2.968,-2.9695,-2.9811,-2.9753,-2.9767,-2.9763,-2.98,-2.9797,-2.9817,-2.9821,-2.982,-2.98,-2.9829,-2.984,-2.9925,-2.9984,-2.9868,-2.9873,-3.015,-3.0156,-3.0162,-3.0255,0,0,0,0,0,0,-2.9676,-2.9694,-2.9738,-2.9755,-2.977,-2.9887,-2.9804,-2.9801,-2.9828,-2.9819,-2.9842,-2.9842,-2.9827,-2.9916,-2.9931,-2.999,-2.9878,-3.0144,-3.0153,-3.016,-3.0247,-3.0264,-3.0279,0,0,0,0,0,-2.967,-2.9763,-2.974,-2.9755,-2.9825,-2.989,-2.9899,-2.988,-2.9833,-2.9877,-2.9879,-2.9841,-2.9976,-2.9926,-2.9941,-3.0004,-3.014,-3.015,-3.016,-3.024,-3.0261,-3.0279,0,0,0,0,0,0,-2.9753,-2.9764,-2.974,-2.984,-2.9865,-2.9878,-2.9932,-2.9903,-2.9941,-2.9932,-2.9907,-2.9912,-3.0003,-3.0012,-2.9956,-3.0116,-3.005,-3.0064,-3.0106,-3.0126,-3.0142,-3.0137,-2.9883,0,0,0,0,0,-2.9783,-2.9835,-2.9842,-2.993,-2.9944,-2.9936,-2.9964,-2.9947,-2.9972,-2.9982,-2.999,-3.0016,-3.0063,-3.0096,-3.014,-3.0249,-3.0252,-3.0299,-3.0315,-3.0328,-3.0339,-3.0396,-3.0417,-3.0196,-3.0196,-3.0196,0,0,-2.9846,-2.9858,-2.9893,-2.9947,-2.9964,-3.0018,-2.9945,-3.0006,-3.0046,-2.9991,-3.0071,-3.0078,-3.0105,-3.0202,-3.0245,-3.0212,-3.0401,-3.034,-3.0351,-3.0355,-3.0408,-3.0429,-3.0448,-3.0202,-3.0201,-3.02,0,0,-2.9986,-3.0002,-3.0076,-3.0094,-3.0121,-3.0115,-3.0133,-3.0151,-3.0153,-3.0233,-3.0192,-3.024,-3.0323,-3.0343,-3.0365,-3.0514,-3.048,-3.0529,-3.0612,-3.0668,-3.0685,-3.07,-3.0752,-3.0771,-3.0541,-3.0541,-3.0541,0,-3.0061,-3.0141,-3.0118,-3.0182,-3.0206,-3.0159,-3.0233,-3.0252,-3.0292,-3.0311,-3.0274,-3.0377,-3.0392,-3.0492,-3.0528,-3.0547,-3.0567,-3.0525,-3.0684,-3.0699,-3.0713,-3.0762,-3.0782,-3.0546,-3.0546,-3.0545,-3.0545,0,-3.023,-3.0286,-3.0343,-3.0381,-3.0413,-3.0482,-3.047,-3.0505,-3.0485,-3.0484,-3.0565,-3.0582,-3.0628,-3.0651,-3.0633,-3.0749,-3.0727,-3.0688,-3.0621,-3.074,-3.0786,-3.0804,-3.0555,-3.0552,-3.0551,-3.0549,0,0,-3.0424,-3.0449,-3.047,-3.0486,-3.0512,-3.0555,-3.0622,-3.0666,-3.0696,-3.0725,-3.078,-3.0852,-3.0815,-3.0839,-3.0823,-3.0873,-3.0988,-3.0827,-3.0827,-3.0855,-3.1115,-3.1143,-3.1165,-3.0966,-3.097,-3.0972,-3.1112,0,-3.0564,-3.0678,-3.0659,-3.077,-3.0821,-3.0776,-3.0834,-3.0856,-3.0857,-3.09,-3.0901,-3.0952,-3.09,-3.0914,-3.0961,-3.0964,-3.1039,-3.0954,-3.1016,-3.1019,-3.1009,-3.1189,-3.1219,-3.135,-3.113,-3.1133,-3.1135,0,-3.0742,-3.0776,-3.0892,-3.0908,-3.0929,-3.0981,-3.102,-3.1062,-3.1086,-3.1083,-3.111,-3.1085,-3.1152,-3.1085,-3.1177,-3.1119,-3.1144,-3.1149,-3.1153,-3.1157,-3.1083,-3.1196,-3.1391,-3.1411,-3.1163,-3.1161,-3.1159,0,-3.0869,-3.0945,-3.1024,-3.1039,-3.1061,-3.1098,-3.1109,-3.1129,-3.1157,-3.1191,-3.1209,-3.1251,-3.1274,-3.1308,-3.1295,-3.1248,-3.1388,-3.1321,-3.1387,-3.1387,-3.1417,-3.1415,-3.1617,-3.1436,-3.1436,-3.1435,-3.1435,0,-3.1026,-3.1098,-3.1081,-3.1129,-3.1209,-3.1187,-3.1266,-3.1272,-3.129,-3.1339,-3.1304,-3.135,-3.133,-3.1376,-3.1366,-3.1443,-3.1454,-3.1453,-3.1449,-3.1455,-3.1455,-3.147,-3.146,-3.1441,-3.1439,-3.1438,-3.1438,0,-3.1182,-3.1173,-3.1256,-3.1269,-3.1274,-3.1332,-3.1343,-3.1388,-3.1386,-3.1448,-3.1461,-3.1458,-3.1509,-3.15,-3.1557,-3.1551,-3.1646,-3.1632,-3.1637,-3.1633,-3.1699,-3.1692,-3.1917,-3.1945,-3.1747,-3.1749,-3.175,0,-3.1282,-3.1336,-3.1355,-3.1384,-3.1397,-3.1446,-3.1473,-3.1455,-3.1485,-3.1516,-3.1558,-3.1606,-3.1643,-3.1727,-3.173,-3.1774,-3.1759,-3.1835,-3.1766,-3.177,-3.1759,-3.1755,-3.176,-3.1848,-3.1851,-3.1852,-3.1854,0,-3.146,-3.1452,-3.1493,-3.1533,-3.1567,-3.1597,-3.1624,-3.1651,-3.1634,-3.167,-3.1722,-3.175,-3.1808,-3.1856,-3.1897,-3.1908,-3.1879,-3.1876,-3.1893,-3.1899,-3.1899,-3.1899,-3.1673,-3.187,-3.1869,-3.1868,-3.1867,-3.1866,-3.1589,-3.1635,-3.1655,-3.1701,-3.1719,-3.1745,-3.1788,-3.1791,-3.1833,-3.1878,-3.1864,-3.1923,-3.1945,-3.1996,-3.2012,-3.2058,-3.203,-3.2055,-3.2061,-3.2068,-3.2075,-3.1893,-3.2065,-3.2065,-3.2064,-3.2064,-3.2064,0,-3.1764,-3.1774,-3.1817,-3.1855,-3.1892,-3.1861,-3.1889,-3.1922,-3.1973,-3.1996,-3.2033,-3.2092,-3.2138,-3.2145,-3.2189,-3.2224,-3.2212,-3.2236,-3.2233,-3.2236,-3.2098,-3.2078,-3.2246,-3.2245,-3.2245,-3.2245,-3.2245,-3.2245,-3.1859,-3.1933,-3.1929,-3.2012,-3.2022,-3.2078,-3.2097,-3.2121,-3.2139,-3.2206,-3.2244,-3.2247,-3.2264,-3.2308,-3.2349,-3.235,-3.2367,-3.2397,-3.2393,-3.2264,-3.2246,-3.2228,-3.2209,-3.2401,-3.2402,-3.2526,-3.2527,-3.2528]},{"header":{"parameterUnit":"m.s-1","parameterCategory":1,"la1":30.2991,"la2":30.254,"lo1":-89.0895,"lo2":-89.0444,"dy":0.0017,"dx":0.0017,"nx":28,"ny":28,"refTime":"2024-06-19T21:00:00:Z","depth":0,"parameterNumber":3,"parameterNumberName":"V-component_of_WINDS"},"data":[0,0,0,0,0,0,0,0,0,0,0,0,0,0,0,0,0,0,0,0,0,0,0,0,0,0,0,0,0,0,0,0,0,0,0,0,0,0,0,0,0,0,0,0,0,0,0,0,0,0,0,0,0,0,0,0,0,0,1.3375,1.3375,0,1.3428,1.3429,1.3429,1.3459,1.3459,1.346,1.346,1.3511,1.3512,1.3513,0,0,0,0,0,0,0,0,0,0,0,0,0,1.3296,1.3297,1.3375,1.3375,1.3376,1.3428,1.3429,1.3429,1.3459,1.3459,1.346,1.346,1.351,1.3512,1.3513,0,0,0,0,0,0,0,0,0,0,0,0,0,1.3337,1.3297,1.3374,1.3397,1.34,1.3428,1.3429,1.343,1.3459,1.3459,1.346,1.346,1.351,1.3512,1.3514,1.3522,0,0,1.3519,1.352,0,0,0,0,0,0,0,0,1.3335,1.334,1.3393,1.3396,1.3399,1.3437,1.342,1.346,1.3459,1.3437,1.346,1.346,1.3486,1.349,1.3499,1.3524,1.3527,1.352,1.3521,1.3522,1.3522,0,0,0,0,0,0,0,1.3332,1.3338,1.3396,1.3394,1.3397,1.3404,1.341,1.3427,1.346,1.3439,1.3441,1.3447,1.3487,1.3497,1.3501,1.3527,1.352,1.3521,1.3522,1.3523,1.3562,1.3562,0,0,0,0,0,0,1.3326,1.3335,1.3394,1.3397,1.3367,1.3405,1.3412,1.3425,1.346,1.3465,1.3447,1.3448,1.3494,1.3499,1.3503,1.3515,1.3522,1.3523,1.3524,1.3562,1.3562,1.3562,0,0,0,0,0,0,1.3324,1.3331,1.3392,1.3367,1.3375,1.3406,1.342,1.3426,1.3436,1.3466,1.3471,1.3451,1.3494,1.35,1.3517,1.3517,1.3524,1.3526,1.3562,1.3562,1.3562,1.3539,0,0,0,0,0,0,1.3322,1.333,1.3334,1.3367,1.3377,1.3406,1.342,1.3427,1.3439,1.3442,1.3472,1.3477,1.3495,1.3514,1.3519,1.352,1.3527,1.3562,1.3562,1.3562,1.354,1.3539,1.3537,0,0,0,0,0,1.3319,1.3325,1.3334,1.3341,1.3383,1.3406,1.3412,1.3434,1.3439,1.3443,1.3463,1.3476,1.3516,1.3516,1.3522,1.3523,1.3562,1.3562,1.3562,1.3541,1.3539,1.3537,0,0,0,0,0,0,1.329,1.333,1.334,1.3358,1.3379,1.3411,1.3417,1.3431,1.3449,1.3451,1.3476,1.3483,1.3497,1.3512,1.351,1.3533,1.3541,1.3542,1.3523,1.3521,1.352,1.3516,1.3529,0,0,0,0,0,1.3286,1.3303,1.3336,1.3348,1.3358,1.3386,1.3397,1.3412,1.3434,1.3443,1.3464,1.3484,1.3501,1.3512,1.353,1.3543,1.3549,1.3546,1.3545,1.3543,1.3544,1.3551,1.3551,1.3561,1.3561,1.3561,0,0,1.3277,1.3301,1.331,1.3343,1.3361,1.3377,1.3393,1.3409,1.3421,1.3445,1.3463,1.3479,1.3503,1.3518,1.3526,1.353,1.3542,1.3543,1.3541,1.3543,1.3551,1.355,1.3549,1.3561,1.3561,1.3561,0,0,1.327,1.329,1.3302,1.332,1.3347,1.3366,1.3369,1.34,1.3411,1.343,1.3448,1.3462,1.3492,1.3508,1.3521,1.352,1.3532,1.3525,1.3516,1.3523,1.3522,1.3522,1.3521,1.3521,1.3525,1.3525,1.3525,0,1.3255,1.3281,1.3306,1.3322,1.3336,1.3359,1.3371,1.3387,1.3418,1.3427,1.3432,1.347,1.3488,1.3507,1.3507,1.3516,1.352,1.3521,1.3521,1.352,1.352,1.352,1.352,1.3524,1.3524,1.3524,1.3524,0,1.3262,1.328,1.3286,1.3317,1.3332,1.3345,1.3371,1.3383,1.3397,1.3414,1.3433,1.3455,1.3478,1.3484,1.3497,1.3505,1.3507,1.3516,1.3525,1.3518,1.3518,1.3518,1.3522,1.3522,1.3523,1.3523,0,0,1.3238,1.3283,1.3285,1.3299,1.3331,1.3345,1.3359,1.3383,1.3392,1.3413,1.3425,1.345,1.3459,1.3472,1.3488,1.3494,1.3492,1.3503,1.3504,1.35,1.3502,1.3495,1.3495,1.3501,1.3501,1.3501,1.35,0,1.3235,1.3263,1.3286,1.3305,1.3322,1.3345,1.3357,1.3378,1.3395,1.341,1.3428,1.3445,1.3456,1.3464,1.3472,1.3491,1.3493,1.3491,1.3512,1.3512,1.3505,1.3495,1.3487,1.3485,1.35,1.35,1.35,0,1.3235,1.3256,1.3278,1.3309,1.3316,1.3327,1.3351,1.3366,1.3389,1.3401,1.3417,1.3433,1.3448,1.3455,1.3477,1.3475,1.3485,1.3495,1.3496,1.3498,1.3506,1.3497,1.3485,1.3485,1.3501,1.3501,1.3501,0,1.3215,1.3249,1.3266,1.3278,1.3314,1.3321,1.3337,1.3361,1.3373,1.3393,1.3402,1.3423,1.3434,1.345,1.3471,1.3474,1.349,1.3499,1.3499,1.3499,1.3501,1.3501,1.3491,1.3508,1.3508,1.3508,1.3508,0,1.3209,1.3222,1.3258,1.3268,1.3283,1.3308,1.3321,1.3338,1.3359,1.3373,1.3393,1.3406,1.3433,1.3448,1.3465,1.348,1.3485,1.3494,1.3498,1.3492,1.3491,1.3499,1.3499,1.3508,1.3508,1.3508,1.3508,0,1.3189,1.3214,1.3235,1.3268,1.3276,1.3285,1.3313,1.3324,1.3342,1.3359,1.3364,1.3392,1.3411,1.3434,1.346,1.3471,1.3485,1.3491,1.3477,1.348,1.3479,1.3479,1.3473,1.3474,1.349,1.349,1.349,0,1.3184,1.3194,1.3229,1.324,1.3255,1.3273,1.3286,1.3312,1.3324,1.3352,1.3359,1.338,1.3398,1.3427,1.3449,1.3469,1.3476,1.3473,1.3479,1.3473,1.3476,1.3475,1.3476,1.3471,1.3471,1.3471,1.3471,0,1.3172,1.3184,1.3203,1.3227,1.3242,1.3262,1.3282,1.3289,1.3319,1.3332,1.3352,1.3366,1.3394,1.3414,1.3437,1.3451,1.3466,1.3469,1.347,1.3463,1.3455,1.346,1.3473,1.3468,1.3469,1.3469,1.3469,1.3469,1.3159,1.3169,1.3195,1.3216,1.3234,1.3252,1.3264,1.3284,1.3302,1.3327,1.3341,1.3361,1.3384,1.3416,1.343,1.3446,1.3451,1.3452,1.3453,1.3453,1.3451,1.3453,1.345,1.345,1.345,1.345,1.345,0,1.3148,1.3166,1.3185,1.3213,1.3229,1.3242,1.3265,1.3277,1.3295,1.3316,1.3334,1.3357,1.3377,1.3401,1.3422,1.3429,1.3436,1.3434,1.3434,1.3437,1.3445,1.3442,1.3428,1.3428,1.3428,1.3428,1.3428,1.3428,1.3144,1.3162,1.3177,1.3204,1.3222,1.3242,1.3254,1.3271,1.3288,1.3313,1.333,1.3346,1.3368,1.3391,1.341,1.3416,1.3423,1.3419,1.3427,1.3434,1.3436,1.3438,1.3435,1.342,1.342,1.3417,1.3417,1.3417]}]]